This demonstration page uses our WeatherBlox Daily Observations layout. Learn more.

Left ArrowRight Arrow

38.20091, -84.87328

Hourly Observations for May 24, 2022

Temp ( °F °C ) Dew Point ( °F °C ) Humidity (%) Winds ( mph kmh ) Pressure ( in mb ) Visibility ( mi km ) Precip ( " mm )
12:53 am 00:53 Clear 56 13.3 52 11.1 87 87 NNE 3 6 30.13 1020 10 16 0.00 0.00
1:53 am 01:53 Clear 54 12.2 51 10.6 90 90 ENE 5 7 30.11 1020 10 16 0.00 0.00
2:53 am 02:53 Clear 53 11.7 50 10 89 89 NNW 3 6 30.11 1020 10 16 0.00 0.00
3:53 am 03:53 Mostly Cloudy 53 11.7 50 10 89 89 NNW 3 6 30.11 1020 10 16 0.00 0.00
4:30 am 04:30 Partly Cloudy 54 12.2 50 10 87 87 Calm 30.11 1020 10 16 0.00 0.00
4:53 am 04:53 Mostly Cloudy 54 12.2 50 10 87 87 NNE 5 7 30.10 1019 10 16 0.00 0.00
5:53 am 05:53 Cloudy 54 12.2 50 10 87 87 NNE 3 6 30.11 1020 10 16 0.00 0.00
6:53 am 06:53 Cloudy 55 12.8 51 10.6 87 87 Calm 30.13 1020 10 16 0.00 0.00
7:53 am 07:53 Cloudy 56 13.3 51 10.6 84 84 ENE 6 9 30.13 1020 10 16 0.00 0.00
8:53 am 08:53 Cloudy 58 14.4 52 11.1 81 81 ENE 7 11 30.15 1021 10 16 0.00 0.00
9:53 am 09:53 Cloudy 61 16.1 53 11.7 75 75 ENE 9 15 30.15 1021 10 16 0.00 0.00
10:53 am 10:53 Cloudy 63 17.2 55 12.8 76 76 ESE 6 9 30.15 1021 10 16 0.00 0.00
11:53 am 11:53 Cloudy 65 18.3 56 13.3 73 73 SE 8 13 30.15 1021 10 16 0.00 0.00
12:53 pm 12:53 Cloudy 67 19.4 57 13.9 71 71 ENE 6 9 30.14 1021 10 16 0.00 0.00
1:53 pm 13:53 Cloudy 70 21.1 58 14.4 66 66 ENE 8 13 30.11 1020 10 16 0.00 0.00
2:53 pm 14:53 Cloudy 71 21.7 59 15 66 66 E 8 13 30.11 1020 10 16 0.00 0.00
3:53 pm 15:53 Cloudy 72 22.2 60 15.6 66 66 ESE 8 13 30.09 1019 10 16 0.00 0.00
4:53 pm 16:53 Cloudy 71 21.7 60 15.6 68 68 ESE 6 9 30.09 1019 10 16 0.00 0.00
5:53 pm 17:53 Cloudy 72 22.2 61 16.1 68 68 E 10 17 30.07 1018 10 16 0.00 0.00
6:36 pm 18:36 Partly Cloudy 71 21.7 60 15.6 68 68 ESE 13 20 30.07 1018 10 16 0.00 0.00
6:53 pm 18:53 Mostly Cloudy 71 21.7 60 15.6 68 68 E 15 24 30.07 1018 10 16 0.00 0.00
7:02 pm 19:02 Partly Cloudy 71 21.7 60 15.6 68 68 ESE 14 22 30.06 1018 10 16 0.00 0.00
7:16 pm 19:16 Mostly Cloudy 70 21.1 60 15.6 71 71 E 10 17 30.07 1018 10 16 0.00 0.00
7:29 pm 19:29 Partly Cloudy 69 20.6 59 15 70 70 E 13 20 30.07 1018 10 16 0.00 0.00
7:43 pm 19:43 Mostly Cloudy 68 20 59 15 73 73 ESE 14 22 30.07 1018 10 16 0.00 0.00
7:53 pm 19:53 Mostly Cloudy 68 20 59 15 73 73 ESE 10 17 30.08 1019 10 16 0.00 0.00
8:04 pm 20:04 Partly Cloudy 67 19.4 59 15 76 76 E 10 17 30.07 1018 10 16 0.00 0.00
8:53 pm 20:53 Clear 66 18.9 59 15 78 78 ESE 9 15 30.07 1018 10 16 0.00 0.00
9:34 pm 21:34 Mostly Cloudy 66 18.9 59 15 78 78 E 7 11 30.07 1018 10 16 0.00 0.00
9:53 pm 21:53 Cloudy 66 18.9 59 15 78 78 E 8 13 30.07 1018 10 16 0.00 0.00
10:53 pm 22:53 Mostly Cloudy 65 18.3 58 14.4 78 78 ESE 9 15 30.10 1019 10 16 0.00 0.00
11:14 pm 23:14 Mostly Clear 65 18.3 58 14.4 78 78 E 7 11 30.10 1019 10 16 0.00 0.00
11:53 pm 23:53 Cloudy 65 18.3 58 14.4 78 78 E 7 11 30.08 1019 10 16 0.00 0.00

Powered by AerisWeather